Location: Ferchesar
(52.6477°N, 12.4298°E)
Time: 07:44:22
(UTC+01:00)

Vanguard 3 - All Passes

Search period start: 07 December 2021 00:00
Search period end: 17 December 2021 00:00
Orbit: 508 x 3260 km, 33.4° (Epoch: 06 December)

Date Brightness Start Highest point End Pass type
(mag) Time Alt. Az. Time Alt. Az. Time Alt. Az.
07 Dec - 01:38:45 10° SSW 01:52:12 25° SE 02:05:45 10° ESE visible
07 Dec - 03:48:41 10° SW 04:05:32 37° S 04:20:17 10° ESE visible
07 Dec - 06:02:32 10° WSW 06:19:10 37° SSW 06:31:50 10° SE visible
07 Dec - 08:19:19 10° W 08:31:14 23° SW 08:40:15 10° S daylight
08 Dec - 00:27:08 10° S 00:37:03 17° SE 00:47:32 10° ESE visible
08 Dec - 02:33:55 10° SSW 02:49:33 33° SSE 03:04:46 10° ESE visible
08 Dec - 04:46:05 10° WSW 05:03:21 40° S 05:17:44 10° ESE visible
08 Dec - 07:01:19 10° WSW 07:16:29 31° SSW 07:27:57 10° SSE visible
08 Dec - 09:21:08 10° WSW 09:27:26 13° SW 09:32:50 10° SSW daylight
09 Dec - 01:20:20 10° SSW 01:33:53 27° SSE 01:48:14 10° E visible
09 Dec - 03:30:27 10° SW 03:47:16 39° S 04:02:51 10° ESE visible
09 Dec - 05:44:12 10° WSW 06:01:03 37° SSW 06:14:33 10° SE visible
09 Dec - 08:01:02 10° W 08:13:16 22° SW 08:22:51 10° S daylight
10 Dec - 00:08:25 10° S 00:18:44 19° SE 00:30:08 10° ESE visible
10 Dec - 02:15:46 10° SW 02:31:13 35° SSE 02:47:08 10° ESE visible
10 Dec - 04:27:53 10° WSW 04:45:07 40° S 05:00:19 10° ESE visible
10 Dec - 06:43:00 10° WSW 06:58:22 31° SSW 07:10:33 10° SSE visible
10 Dec - 09:03:25 10° WSW 09:09:26 13° SW 09:14:44 10° SSW daylight
10 Dec - 23:01:33 10° SE 23:04:15 11° SE 23:07:03 10° ESE visible
11 Dec - 01:02:11 10° SSW 01:15:33 28° SSE 01:30:28 10° E visible
11 Dec - 03:12:25 10° SW 03:28:56 40° S 03:45:14 10° ESE visible
11 Dec - 05:26:01 10° WSW 05:42:50 37° SSW 05:57:06 10° SE visible
11 Dec - 07:42:52 10° W 07:55:09 22° SW 08:05:12 10° S daylight
11 Dec - 23:50:05 10° S 00:00:27 20° SE 00:12:26 10° E visible
12 Dec - 01:57:51 10° SW 02:12:53 36° SSE 02:29:20 10° ESE visible
12 Dec - 04:09:52 10° WSW 04:26:49 40° S 04:42:42 10° SE visible
12 Dec - 06:24:51 10° W 06:40:10 30° SSW 06:52:58 10° SSE visible
12 Dec - 08:46:05 10° WSW 08:51:20 12° SW 08:56:08 10° SW daylight
12 Dec - 22:41:30 10° SE 22:46:02 12° SE 22:50:57 10° ESE visible
13 Dec - 00:44:18 10° SSW 00:57:14 30° SSE 01:12:31 10° E visible
13 Dec - 02:54:33 10° SW 03:10:37 40° S 03:27:26 10° ESE visible
13 Dec - 05:07:58 10° WSW 05:24:32 36° SSW 05:39:26 10° SE visible
13 Dec - 07:24:52 10° W 07:36:57 21° SW 07:47:16 10° S visible
13 Dec - 23:32:05 10° S 23:42:14 21° SE 23:54:29 10° E visible
14 Dec - 01:40:07 10° SW 01:54:35 37° SSE 02:11:21 10° ESE visible
14 Dec - 03:52:01 10° WSW 04:08:29 40° S 04:24:53 10° SE visible
14 Dec - 06:06:50 10° W 06:21:53 29° SSW 06:35:08 10° SSE visible
14 Dec - 08:29:32 10° WSW 08:33:09 11° SW 08:36:35 10° SW daylight
14 Dec - 22:22:41 10° SSE 22:27:55 13° SE 22:33:45 10° ESE night (unlit)
15 Dec - 00:26:37 10° SSW 00:39:00 31° SSE 00:54:23 10° E visible
15 Dec - 02:36:53 10° WSW 02:52:17 40° S 03:09:27 10° ESE visible
15 Dec - 04:50:06 10° WSW 05:06:12 35° SSW 05:21:33 10° SE visible
15 Dec - 07:07:04 10° W 07:18:40 19° SW 07:29:02 10° S visible
15 Dec - 23:14:21 10° S 23:24:04 22° SE 23:36:21 10° E visible
16 Dec - 01:22:35 10° SW 01:36:19 37° SSE 01:53:11 10° ESE visible
16 Dec - 03:34:20 10° WSW 03:50:08 39° S 04:06:54 10° SE visible
16 Dec - 05:49:00 10° W 06:03:32 27° SSW 06:17:03 10° SSE visible
16 Dec - 22:04:28 10° SSE 22:09:51 13° SE 22:16:07 10° ESE night (unlit)
